Weather History for KDAA - November, 2011

Change the Weather History Date:

Thursday, November 17, 2011

  Actual Average Record
Temperature  
Mean Temperature 46 °F -  
Max Temperature 53 °F 55 °F 68 °F (1998)
Min Temperature 37 °F 33 °F 23 °F (1996)
Degree Days  
Heating Degree Days 20    
Moisture  
Dew Point 30 °F    
Average Humidity 54    
Maximum Humidity 93    
Minimum Humidity 35    
Precipitation  
Precipitation 0.01 in - - ()
Sea Level Pressure  
Sea Level Pressure 30.01 in    
Wind  
Wind Speed 8 mph (NW)    
Max Wind Speed 23 mph    
Max Gust Speed 31 mph    
Visibility 10 miles    
Events Rain    
Averages and records for this station are not official NWS values.
T = Trace of Precipitation, MM = Missing Value Source: NWS Daily Summary

Daily Weather History Graph

Daily Weather History Graph

Search for Another Location

Airport or City:

Trip Planner

Search our weather history database for the weather conditions in past years. The results will help you decide how hot, cold, wet, or windy it might be!

Date:

Astronomy

Nov. 17, 2011 Rise Set
Actual Time 6:52 AM EST 4:54 PM EST
Civil Twilight 6:24 AM EST 5:22 PM EST
Nautical Twilight 5:52 AM EST 5:54 PM EST
Astronomical Twilight 5:20 AM EST 6:26 PM EST
Moon 11:10 PM EST (11/17) 12:01 PM EST (11/17)
Length of Visible Light 10h 58m
Length of Day
10h 01m
Waning Gibbous, 60% of the Moon is Illuminated
Nov 17
Waning Gibbous
Nov 18
Last Quarter
Nov 25
New
Dec 2
First Quarter
Dec 10
Full

Hourly Weather History & Observations

Time (EST) Temp. Windchill Dew Point Humidity Pressure Visibility Wind Dir Wind Speed Gust Speed Precip Events Conditions
12:55 AM 52.5 °F - 50.5 °F 93% 29.89 in 10.0 mi Calm Calm - N/A   Mostly Cloudy
1:55 AM 52.5 °F - 49.8 °F 91% 29.89 in 10.0 mi Calm Calm - N/A   Mostly Cloudy
2:55 AM 53.2 °F - 44.4 °F 72% 29.90 in 10.0 mi NW 9.2 mph 19.6 mph N/A   Overcast
3:55 AM 51.8 °F - 39.4 °F 63% 29.90 in 10.0 mi NNW 8.1 mph 19.6 mph 0.01 in   Overcast
4:55 AM 49.5 °F - 32.2 °F 51% 29.92 in 10.0 mi NW 10.4 mph - N/A   Overcast
4:58 AM 50.0 °F - 32.0 °F 50% 29.91 in 10.0 mi NW 9.2 mph - N/A Rain Light Rain
5:38 AM 46.4 °F 41.9 °F 33.8 °F 62% 29.94 in 10.0 mi NW 9.2 mph - N/A   Scattered Clouds
5:49 AM 48.2 °F - 32.0 °F 54% 29.93 in 10.0 mi NW 9.2 mph - N/A Rain Light Rain
5:55 AM 47.1 °F - 32.0 °F 56% 29.93 in 10.0 mi NW 11.5 mph 18.4 mph 0.00 in Rain Light Rain
6:09 AM 46.4 °F 42.4 °F 32.0 °F 57% 29.94 in 10.0 mi NW 8.1 mph - N/A   Scattered Clouds
6:41 AM 46.4 °F 41.9 °F 32.0 °F 57% 29.95 in 10.0 mi NW 9.2 mph - N/A Rain Light Rain
6:45 AM 46.4 °F 42.4 °F 32.0 °F 57% 29.95 in 10.0 mi NW 8.1 mph - N/A   Partly Cloudy
6:55 AM 47.3 °F - 30.6 °F 52% 29.95 in 10.0 mi NW 11.5 mph - 0.00 in   Scattered Clouds
7:20 AM 48.2 °F - 30.2 °F 50% 29.97 in 10.0 mi NW 17.3 mph 21.9 mph N/A Rain Light Rain
7:35 AM 46.4 °F 40.1 °F 30.2 °F 53% 29.98 in 10.0 mi NW 15.0 mph - N/A   Scattered Clouds
7:37 AM 46.4 °F 41.1 °F 30.2 °F 53% 29.99 in 10.0 mi NW 11.5 mph - N/A Rain Light Rain
7:55 AM 46.4 °F 42.4 °F 31.6 °F 56% 29.97 in 10.0 mi NNW 8.1 mph - 0.00 in Rain Light Rain
8:20 AM 46.4 °F 41.9 °F 30.2 °F 53% 29.99 in 10.0 mi NNW 9.2 mph - N/A   Scattered Clouds
8:55 AM 46.9 °F - 30.6 °F 53% 29.97 in 10.0 mi NNW 5.8 mph - 0.00 in   Mostly Cloudy
9:55 AM 46.6 °F - 30.2 °F 53% 30.00 in 10.0 mi NW 16.1 mph 19.6 mph N/A   Clear
10:02 AM 46.4 °F 38.3 °F 30.2 °F 53% 30.02 in 10.0 mi NW 23.0 mph 31.1 mph N/A Rain Light Rain
10:55 AM 44.2 °F 41.0 °F 32.2 °F 63% 30.00 in 10.0 mi Variable 5.8 mph - 0.00 in Rain Light Rain
11:00 AM 44.6 °F 40.7 °F 32.0 °F 61% 29.99 in 10.0 mi NNW 6.9 mph - N/A   Scattered Clouds
11:55 AM 45.7 °F 41.0 °F 30.0 °F 54% 29.98 in 10.0 mi North 9.2 mph 21.9 mph 0.00 in   Partly Cloudy
12:55 PM 46.2 °F 40.1 °F 26.2 °F 46% 29.98 in 10.0 mi NNW 13.8 mph 25.3 mph N/A   Scattered Clouds
1:55 PM 47.5 °F - 27.9 °F 47% 29.97 in 10.0 mi WNW 18.4 mph 21.9 mph N/A   Partly Cloudy
2:55 PM 46.2 °F 39.0 °F 21.4 °F 37% 30.00 in 10.0 mi NW 18.4 mph 31.1 mph N/A   Mostly Cloudy
3:55 PM 46.2 °F 39.8 °F 19.6 °F 35% 30.02 in 10.0 mi NW 15.0 mph 21.9 mph N/A   Overcast
4:55 PM 44.1 °F 36.8 °F 20.8 °F 40% 30.06 in 10.0 mi WNW 16.1 mph - N/A   Clear
5:55 PM 42.1 °F 36.6 °F 22.3 °F 45% 30.10 in 10.0 mi WNW 9.2 mph - N/A   Clear
6:55 PM 41.9 °F 35.0 °F 21.4 °F 44% 30.14 in 10.0 mi WNW 12.7 mph - N/A   Clear
7:55 PM 41.0 °F 35.8 °F 21.6 °F 46% 30.18 in 10.0 mi West 8.1 mph - N/A   Clear
8:55 PM 39.9 °F 35.1 °F 21.9 °F 49% 30.20 in 10.0 mi West 6.9 mph - N/A   Clear
9:55 PM 39.7 °F 34.3 °F 21.4 °F 48% 30.21 in 10.0 mi West 8.1 mph - N/A   Clear
10:55 PM 38.8 °F 34.6 °F 21.0 °F 49% 30.22 in 10.0 mi West 5.8 mph - N/A   Clear
11:55 PM 37.9 °F 34.4 °F 20.5 °F 49% 30.25 in 10.0 mi West 4.6 mph - N/A   Clear